[[{"header":{"parameterUnit":"m.s-1","parameterCategory":1,"la1":30.2991,"la2":30.254,"lo1":-89.0895,"lo2":-89.0444,"dy":0.0017,"dx":0.0017,"nx":28,"ny":28,"refTime":"2026-02-10T03:00:00:Z","depth":0,"parameterNumber":2,"parameterNumberName":"U-component_of_WINDS"},"data":[0,0,0,0,0,0,0,0,0,0,0,0,0,0,0,0,0,0,0,0,0,0,0,0,0,0,0,0,0,0,0,0,0,0,0,0,0,0,0,0,0,0,0,0,0,0,0,0,0,0,0,0,0,0,0,0,0,0,1.3764,1.3765,0,1.3836,1.3837,1.3838,1.3835,1.3834,1.3833,1.3832,1.3905,1.3907,1.391,0,0,0,0,0,0,0,0,0,0,0,0,0,1.3621,1.3624,1.3764,1.3765,1.3766,1.3836,1.3837,1.3838,1.3835,1.3834,1.3832,1.3831,1.3904,1.3907,1.391,0,0,0,0,0,0,0,0,0,0,0,0,0,1.3687,1.3624,1.3764,1.3772,1.3774,1.3836,1.3837,1.3839,1.3835,1.3834,1.3832,1.3831,1.3902,1.3907,1.3911,1.3969,0,0,1.3924,1.3926,0,0,0,0,0,0,0,0,1.3683,1.3692,1.377,1.3772,1.3774,1.3825,1.3814,1.3882,1.3836,1.3812,1.3832,1.383,1.3879,1.3885,1.3902,1.3972,1.3975,1.3925,1.3927,1.3929,1.393,0,0,0,0,0,0,0,1.3679,1.3689,1.3792,1.3771,1.3774,1.3772,1.378,1.3827,1.3853,1.3814,1.3814,1.3822,1.388,1.3898,1.3904,1.3976,1.3925,1.3928,1.3931,1.3933,1.4097,1.4099,0,0,0,0,0,0,1.3672,1.3685,1.379,1.3795,1.3724,1.3776,1.3785,1.381,1.3853,1.3858,1.3824,1.3822,1.3891,1.3899,1.3907,1.3977,1.3929,1.3933,1.3936,1.4095,1.4098,1.4099,0,0,0,0,0,0,1.3669,1.3682,1.3787,1.374,1.3753,1.378,1.3809,1.3812,1.3831,1.386,1.3865,1.3838,1.3891,1.39,1.3953,1.398,1.3935,1.3939,1.4093,1.4096,1.4098,1.4118,0,0,0,0,0,0,1.3665,1.3681,1.3703,1.3741,1.3756,1.3833,1.381,1.3815,1.3838,1.3837,1.3874,1.3879,1.389,1.3947,1.3958,1.3985,1.3942,1.4091,1.4095,1.4098,1.4116,1.4121,1.4127,0,0,0,0,0,1.366,1.3706,1.3704,1.3717,1.3785,1.3835,1.3843,1.3856,1.384,1.3863,1.3882,1.3878,1.3975,1.3952,1.3964,1.3993,1.4089,1.4094,1.4097,1.4113,1.412,1.4126,0,0,0,0,0,0,1.367,1.3711,1.371,1.3769,1.3798,1.3834,1.3863,1.3863,1.3897,1.3894,1.3907,1.3916,1.3969,1.3986,1.396,1.4051,1.403,1.4037,1.4038,1.4045,1.405,1.4045,1.3946,0,0,0,0,0,1.3679,1.3717,1.375,1.3799,1.3814,1.3836,1.3858,1.3865,1.3896,1.3908,1.3931,1.3961,1.3999,1.4023,1.4059,1.4118,1.4126,1.4144,1.4149,1.4154,1.4159,1.4192,1.42,1.4112,1.4112,1.4112,0,0,1.3698,1.3725,1.3748,1.3801,1.3825,1.3864,1.3846,1.3888,1.3916,1.3915,1.3966,1.3984,1.4018,1.4075,1.4101,1.4091,1.4185,1.4159,1.4162,1.4165,1.4197,1.4205,1.4213,1.4115,1.4115,1.4114,0,0,1.3752,1.3776,1.382,1.3844,1.3881,1.3895,1.3906,1.3942,1.3954,1.4006,1.4005,1.4039,1.4103,1.4128,1.4149,1.4213,1.421,1.4224,1.4252,1.4284,1.4291,1.4297,1.432,1.4329,1.4229,1.4229,1.4229,0,1.3771,1.3829,1.3842,1.3884,1.3907,1.3908,1.3952,1.3975,1.4021,1.4037,1.4026,1.4106,1.4129,1.4192,1.4207,1.4224,1.4236,1.422,1.4289,1.4296,1.4302,1.4324,1.4332,1.4231,1.4231,1.4231,1.423,0,1.3851,1.3891,1.3922,1.3967,1.3994,1.4037,1.4055,1.4081,1.4086,1.4101,1.4154,1.4182,1.4224,1.4239,1.4244,1.4303,1.4295,1.4287,1.4266,1.4311,1.4332,1.4341,1.4233,1.4232,1.4232,1.4232,0,0,1.3912,1.3965,1.3976,1.3996,1.4037,1.4069,1.4111,1.4153,1.4174,1.4206,1.4242,1.4297,1.4289,1.4313,1.432,1.4348,1.4397,1.4336,1.4337,1.4346,1.4464,1.447,1.448,1.4396,1.4397,1.4399,1.4461,0,1.3971,1.4047,1.406,1.4127,1.4164,1.4166,1.4203,1.4232,1.4248,1.4282,1.4299,1.4337,1.4324,1.4338,1.4366,1.4385,1.4421,1.4381,1.4429,1.4431,1.4421,1.4491,1.4498,1.4555,1.4469,1.4471,1.4472,0,1.4049,1.4084,1.4155,1.4191,1.4207,1.424,1.4279,1.4312,1.4344,1.4354,1.4381,1.4385,1.4429,1.4406,1.4467,1.444,1.446,1.4473,1.4475,1.448,1.4454,1.4498,1.4574,1.4582,1.4485,1.4484,1.4483,0,1.4087,1.4152,1.4202,1.422,1.4263,1.4287,1.4306,1.4337,1.4361,1.4395,1.4411,1.445,1.4471,1.45,1.4515,1.4497,1.4575,1.4553,1.4584,1.4583,1.46,1.4599,1.468,1.4613,1.4613,1.4613,1.4613,0,1.4151,1.4194,1.422,1.4251,1.43,1.4314,1.4361,1.438,1.4408,1.4442,1.4446,1.4478,1.4495,1.453,1.4541,1.459,1.4599,1.4608,1.4611,1.4608,1.4607,1.4622,1.4618,1.4615,1.4615,1.4614,1.4614,0,1.4202,1.4221,1.4277,1.4313,1.4323,1.4357,1.4389,1.4419,1.4435,1.4478,1.4489,1.4514,1.4555,1.4573,1.4623,1.4631,1.4687,1.4686,1.4676,1.4677,1.4707,1.4704,1.48,1.4814,1.4738,1.4739,1.4739,0,1.4241,1.4275,1.4315,1.4339,1.4359,1.4397,1.4422,1.4437,1.4463,1.4503,1.4528,1.457,1.4604,1.4669,1.4692,1.473,1.4731,1.4762,1.4736,1.4733,1.4731,1.4729,1.4733,1.4766,1.4767,1.4768,1.4768,0,1.431,1.4318,1.4354,1.4393,1.4423,1.4455,1.4486,1.4505,1.4525,1.4554,1.4596,1.4623,1.4675,1.4716,1.4756,1.4775,1.4775,1.4776,1.4786,1.4783,1.4776,1.478,1.4689,1.4774,1.4773,1.4773,1.4773,1.4772,1.4356,1.4386,1.4419,1.4459,1.4485,1.4514,1.4544,1.4564,1.46,1.4644,1.465,1.4696,1.4728,1.4782,1.4803,1.4838,1.483,1.4843,1.4847,1.485,1.4852,1.477,1.4845,1.4845,1.4845,1.4845,1.4845,0,1.4424,1.4446,1.4483,1.4527,1.4558,1.4556,1.4591,1.4617,1.4657,1.4688,1.4721,1.477,1.481,1.4836,1.4876,1.4899,1.4901,1.4909,1.4908,1.4912,1.4857,1.4845,1.4908,1.4908,1.4908,1.4908,1.4908,1.4908,1.4463,1.4514,1.4526,1.4589,1.461,1.4656,1.4675,1.4702,1.4726,1.4781,1.4815,1.4831,1.486,1.4902,1.4939,1.4945,1.496,1.4969,1.4975,1.4923,1.4916,1.491,1.4899,1.4972,1.4972,1.5028,1.5029,1.5029]},{"header":{"parameterUnit":"m.s-1","parameterCategory":1,"la1":30.2991,"la2":30.254,"lo1":-89.0895,"lo2":-89.0444,"dy":0.0017,"dx":0.0017,"nx":28,"ny":28,"refTime":"2026-02-10T03:00:00:Z","depth":0,"parameterNumber":3,"parameterNumberName":"V-component_of_WINDS"},"data":[0,0,0,0,0,0,0,0,0,0,0,0,0,0,0,0,0,0,0,0,0,0,0,0,0,0,0,0,0,0,0,0,0,0,0,0,0,0,0,0,0,0,0,0,0,0,0,0,0,0,0,0,0,0,0,0,0,0,1.9317,1.9316,0,1.9188,1.9186,1.9185,1.9104,1.9103,1.9103,1.9103,1.8961,1.8958,1.8954,0,0,0,0,0,0,0,0,0,0,0,0,0,1.9485,1.9482,1.9317,1.9316,1.9314,1.9188,1.9186,1.9184,1.9104,1.9103,1.9103,1.9102,1.8962,1.8958,1.8954,0,0,0,0,0,0,0,0,0,0,0,0,0,1.9389,1.9482,1.9317,1.9259,1.9252,1.9188,1.9186,1.9184,1.9104,1.9103,1.9103,1.9102,1.8963,1.8958,1.8953,1.8935,0,0,1.8938,1.8936,0,0,0,0,0,0,0,0,1.9395,1.9383,1.9269,1.9263,1.9255,1.9162,1.9193,1.91,1.9104,1.916,1.9103,1.9102,1.9028,1.9017,1.8994,1.8928,1.8922,1.8938,1.8935,1.8932,1.8931,0,0,0,0,0,0,0,1.9402,1.9388,1.9266,1.9267,1.9259,1.9236,1.9222,1.9175,1.9099,1.9155,1.9149,1.9135,1.9024,1.8999,1.899,1.892,1.8938,1.8933,1.893,1.8928,1.8831,1.8832,0,0,0,0,0,0,1.9419,1.9395,1.927,1.9262,1.9325,1.9233,1.9217,1.9192,1.9099,1.9084,1.9136,1.9132,1.9008,1.8996,1.8985,1.8957,1.8932,1.8928,1.8925,1.8831,1.8831,1.8832,0,0,0,0,0,0,1.9423,1.9409,1.9275,1.9326,1.9308,1.9231,1.9203,1.919,1.9165,1.9085,1.907,1.9126,1.9007,1.8992,1.8948,1.8951,1.8925,1.8921,1.883,1.8831,1.8831,1.8901,0,0,0,0,0,0,1.9428,1.9411,1.9405,1.9327,1.9305,1.9244,1.9204,1.9188,1.9158,1.9152,1.9071,1.9057,1.9005,1.8956,1.8943,1.8943,1.8917,1.883,1.883,1.8831,1.8898,1.8904,1.8909,0,0,0,0,0,1.9434,1.9428,1.9405,1.9391,1.9298,1.9244,1.9232,1.9175,1.9159,1.9151,1.9099,1.9059,1.8953,1.8953,1.8937,1.8936,1.8829,1.883,1.8831,1.8896,1.8903,1.8909,0,0,0,0,0,0,1.9505,1.9417,1.9391,1.9359,1.9311,1.9231,1.922,1.9185,1.9137,1.9132,1.9061,1.9044,1.9007,1.8966,1.8968,1.8912,1.8886,1.8884,1.8941,1.8947,1.8952,1.8963,1.8913,0,0,0,0,0,1.9518,1.9485,1.9408,1.9388,1.9365,1.9297,1.9271,1.9233,1.9177,1.9155,1.91,1.9046,1.8999,1.897,1.8924,1.8892,1.8872,1.8883,1.8888,1.8893,1.8892,1.8871,1.8875,1.8835,1.8835,1.8835,0,0,1.9542,1.949,1.9473,1.9401,1.9358,1.9323,1.928,1.9244,1.9217,1.9149,1.9106,1.9063,1.8997,1.8959,1.894,1.8924,1.8899,1.8894,1.8899,1.8895,1.8873,1.8877,1.888,1.8836,1.8836,1.8836,0,0,1.957,1.9527,1.9506,1.9465,1.9402,1.9356,1.9351,1.9277,1.9247,1.9203,1.9151,1.9115,1.9038,1.8993,1.896,1.897,1.8931,1.8956,1.8985,1.8965,1.8968,1.8971,1.8974,1.8976,1.8955,1.8955,1.8956,0,1.9607,1.9556,1.9499,1.9467,1.9436,1.9375,1.9352,1.9313,1.9237,1.9215,1.92,1.9102,1.9053,1.9004,1.9006,1.8981,1.8972,1.8965,1.8973,1.8975,1.8976,1.8978,1.898,1.8959,1.8959,1.8958,1.8958,0,1.9605,1.957,1.956,1.9492,1.9459,1.9431,1.9367,1.934,1.9303,1.9259,1.9213,1.9153,1.9093,1.9078,1.904,1.9022,1.9015,1.8987,1.896,1.8985,1.8985,1.8986,1.8964,1.8963,1.8962,1.8961,0,0,1.9674,1.9575,1.9573,1.9541,1.9466,1.9436,1.9404,1.9349,1.9327,1.9275,1.9246,1.9182,1.9156,1.9118,1.9075,1.9058,1.9069,1.9031,1.9029,1.9041,1.9045,1.9067,1.9069,1.9043,1.9043,1.9042,1.905,0,1.9691,1.9636,1.9583,1.9545,1.951,1.9452,1.9424,1.9374,1.9331,1.9293,1.9243,1.9199,1.9168,1.9145,1.9126,1.9072,1.9069,1.907,1.9012,1.9011,1.9032,1.907,1.9093,1.9103,1.905,1.905,1.905,0,1.9703,1.9659,1.9619,1.9548,1.9531,1.9508,1.9452,1.9417,1.9358,1.9327,1.9286,1.9241,1.9201,1.9177,1.9121,1.9124,1.9096,1.9066,1.9065,1.9057,1.9033,1.9064,1.9105,1.9107,1.905,1.905,1.905,0,1.9759,1.9687,1.9654,1.9628,1.9545,1.9529,1.9493,1.9433,1.9403,1.9353,1.9332,1.9277,1.9246,1.9203,1.9143,1.9131,1.9092,1.9063,1.9064,1.9066,1.9059,1.9061,1.9098,1.9041,1.9041,1.9041,1.9041,0,1.9783,1.9761,1.9678,1.9658,1.963,1.9568,1.9541,1.9499,1.9446,1.9414,1.9358,1.9328,1.9251,1.9211,1.9162,1.9123,1.9109,1.9082,1.9069,1.9087,1.9091,1.9069,1.9067,1.9041,1.9041,1.9041,1.9041,0,1.9841,1.9784,1.9744,1.9669,1.9649,1.9632,1.9566,1.9542,1.9496,1.9456,1.9443,1.937,1.932,1.9256,1.9184,1.9152,1.9117,1.9098,1.9139,1.9132,1.9136,1.9137,1.9161,1.9161,1.9105,1.9105,1.9106,0,1.9861,1.9843,1.9766,1.9743,1.9709,1.9671,1.9641,1.9577,1.9547,1.9478,1.9462,1.9409,1.9363,1.9285,1.9223,1.9168,1.9147,1.9159,1.9138,1.9157,1.9147,1.915,1.9147,1.9165,1.9166,1.9167,1.9167,0,1.9902,1.9875,1.9835,1.9786,1.9752,1.9708,1.9662,1.9645,1.9571,1.9539,1.949,1.9455,1.9383,1.933,1.9267,1.9225,1.9183,1.9174,1.9171,1.919,1.9215,1.9202,1.9154,1.9174,1.9173,1.9173,1.9172,1.9172,1.9941,1.9922,1.9866,1.9823,1.9782,1.9741,1.9715,1.9667,1.9625,1.9565,1.9528,1.948,1.9418,1.933,1.929,1.9249,1.9233,1.9229,1.9228,1.9228,1.9234,1.9221,1.9237,1.9237,1.9237,1.9236,1.9236,0,1.998,1.9941,1.9902,1.9841,1.9807,1.9773,1.972,1.9693,1.9652,1.96,1.9557,1.9499,1.9447,1.9381,1.9324,1.9304,1.9283,1.9291,1.9292,1.9283,1.9252,1.926,1.9309,1.9309,1.9309,1.9309,1.9309,1.9309,1.9996,1.9963,1.993,1.9875,1.9834,1.979,1.9762,1.9722,1.9681,1.962,1.9578,1.9536,1.9478,1.9416,1.9366,1.9347,1.9329,1.9343,1.9319,1.9291,1.9285,1.9279,1.9286,1.9339,1.9339,1.9353,1.9353,1.9353]}]]